Showing default

BSAT-2A, 26720

Orbit data source: Space-Track

BSAT-2A, 26720 is a payload satellite owned by BSAT (JP) in GEO that was launched on Thu, 08 Mar 2001 UTC via an ARIANE 5G launch vehicle from the French Guiana (FRGUI). Payloads include a variety of satellites, spacecraft, and rockets equipped with specific instruments for various scientific and technological missions. These include communications satellites like Starlink; space stations such as the ISS; scientific satellites like the Hubble; Earth observation satellites from companies like Planet Labs, Umbra, and HawkEye 360; GPS; miniature CubeSats for education and research; and military/defense satellites.

Not visible in the next 10 days
BSAT-2A details
Identifier
26720, 2001-011B
Orbit
GEO
Last TLE update17 hours ago
Origin
Flag of JPBSAT (JP / JPN)
ManufacturerOSCD?
MissionPartially operational Commercial Communications
Bus & MotorOSC STAR 1, STAR 30CBP
Mass1,317 kg wet, 490 kg dry
Launch date (UTC)
2001-03-08 (24 years ago)
Launch vehicle
ARIANE 5G
Launch site
French Guiana (FRGUI)
Object type
Payload
Rocket body
Debris
Shape & HBRBox + 2 Pan, 16.1 m
Radar Cross Section21.750 m², Large (>1 m²)

Expand to show TLE details & history

TLE from 17 hours ago
0 BSAT-2A
1 26720U 01011B   25035.55574309  .00000048  00000-0  00000-0 0  9995
2 26720   9.6679  51.8720 0006175 215.7858 142.3797  0.99174478 87034
Epoch: 2025-02-04T13:20Z
Definitive object data (Epoch: 2025-02-04T13:20:16.202Z)
Latitude-0.31348°
Longitude75.09333°
Altitude36,117.317 km
Speed3.062 km/s
True Right ascension03h 20m 28s
True Declination0° 18' 47"
Sunlit
Object was in daylight at TLE epoch
Visualization TLE readout
Latitude-9.43375°
Longitude-26.28637°
Altitude36,078.56 km
Speed3.065 km/s
Apparent Right ascension20h 36m 09s
Apparent Declination-13° 15' 36"
Sunlit
Object is in daylight
Visualization observer readout
Local Sidereal Time08:46:22
Azimuth5.529° NNE
Elevation-63.249°
Doppler factor1
Orbital elements
Apogee altitude36,124.291 km
Perigee altitude36,071.833 km
Semi-major axis42,476.199 km
Eccentricity0.0006175
Inclination9.6679°
RAAN51.872°
Arg. of periapsis215.7858°
True anomaly142.42287°
Mean anomaly142.3797°
Eccentric anomaly142.40129°
Mean motion0.24793 °/min
BSTARUnknown
Orbital period1452.04 mins
Loading historical data...
26720 neighbors
Authenticating...
Loading maneuver chart data...
Loading historical data...
Loading historical data...
Loading historical data...
Loading historical data...
Loading historical data...
Loading historical data...
Loading historical data...
Other satellites on launch #11 in the year 2001 (2001-03-08 UTC)

BSAT-2A Visibility forecast

Observer location: undefined°, undefined

BSAT-2A is not visible in the next 10 days
Span
Click to sort rows by Start time (UTC) header in descending order
Start Az.
Max El. time (UTC)
Max El. Az.
Max El.
End time (UTC)
End Az.
|